owner,sensor,date,latitude,longitude,vertical_datum,wind_speed,wind_to_direction,wind_speed_of_gust,qcFlag 
COMPS,ioos:station:USF.COMPS:SHP:1,2017-09-01T00:00:00Z,30.0600,-84.2910,10.0,5.18,267.21,6.76,'1111122,1111122,1111122' 
COMPS,ioos:station:USF.COMPS:SHP:1,2017-09-01T00:06:00Z,30.0600,-84.2910,10.0,5.21,259.6,6.76,'1111122,1111122,1111122' 
COMPS,ioos:station:USF.COMPS:SHP:1,2017-09-01T00:12:00Z,30.0600,-84.2910,10.0,4.05,247.65,6.76,'1111122,1111122,1111122' 
COMPS,ioos:station:USF.COMPS:SHP:1,2017-09-01T00:18:00Z,30.0600,-84.2910,10.0,4.15,233.17,5.29,'1111122,1111122,1111122' 
COMPS,ioos:station:USF.COMPS:SHP:1,2017-09-01T00:24:00Z,30.0600,-84.2910,10.0,4.56,246.32,6.27,'1111122,1111122,1111122' 
COMPS,ioos:station:USF.COMPS:SHP:1,2017-09-01T00:30:00Z,30.0600,-84.2910,10.0,3.77,216.99,4.9,'1111122,1111122,1111122' 
COMPS,ioos:station:USF.COMPS:SHP:1,2017-09-01T00:36:00Z,30.0600,-84.2910,10.0,4.37,205.53,6.27,'1111122,1111122,1111122' 
COMPS,ioos:station:USF.COMPS:SHP:1,2017-09-01T00:42:00Z,30.0600,-84.2910,10.0,4.33,209.03,5.29,'1111122,1111122,1111122' 
COMPS,ioos:station:USF.COMPS:SHP:1,2017-09-01T00:48:00Z,30.0600,-84.2910,10.0,5.26,210.42,6.27,'1111122,1111122,1111122' 
COMPS,ioos:station:USF.COMPS:SHP:1,2017-09-01T00:54:00Z,30.0600,-84.2910,10.0,4.58,205.14,6.66,'1111122,1111122,1111122' 
COMPS,ioos:station:USF.COMPS:SHP:1,2017-09-01T01:00:00Z,30.0600,-84.2910,10.0,4.81,208.61,6.07,'1111122,1111122,1111122' 
COMPS,ioos:station:USF.COMPS:SHP:1,2017-09-01T01:06:00Z,30.0600,-84.2910,10.0,5.87,221.12,7.15,'1111122,1111122,1111122' 
COMPS,ioos:station:USF.COMPS:SHP:1,2017-09-01T01:12:00Z,30.0600,-84.2910,10.0,6.07,217.33,6.76,'1111122,1111122,1111122' 
COMPS,ioos:station:USF.COMPS:SHP:1,2017-09-01T01:18:00Z,30.0600,-84.2910,10.0,5.82,207.0,7.93,'1111122,1111122,1111122' 
COMPS,ioos:station:USF.COMPS:SHP:1,2017-09-01T01:24:00Z,30.0600,-84.2910,10.0,4.46,185.59,5.97,'1111122,1111122,1111122' 
COMPS,ioos:station:USF.COMPS:SHP:1,2017-09-01T01:30:00Z,30.0600,-84.2910,10.0,4.23,182.69,5.48,'1111122,1111122,1111122' 
COMPS,ioos:station:USF.COMPS:SHP:1,2017-09-01T01:36:00Z,30.0600,-84.2910,10.0,4.73,182.11,6.56,'1111122,1111122,1111122' 
COMPS,ioos:station:USF.COMPS:SHP:1,2017-09-01T01:42:00Z,30.0600,-84.2910,10.0,3.29,193.17,4.99,'1111122,1111122,1111122' 
COMPS,ioos:station:USF.COMPS:SHP:1,2017-09-01T01:48:00Z,30.0600,-84.2910,10.0,2.01,190.03,3.72,'1111122,1111122,1111122' 
COMPS,ioos:station:USF.COMPS:SHP:1,2017-09-01T01:54:00Z,30.0600,-84.2910,10.0,2.92,177.38,4.5,'1111122,1111122,1111122' 
COMPS,ioos:station:USF.COMPS:SHP:1,2017-09-01T02:00:00Z,30.0600,-84.2910,10.0,3.29,217.02,4.31,'1111122,1111122,1111122' 
COMPS,ioos:station:USF.COMPS:SHP:1,2017-09-01T02:06:00Z,30.0600,-84.2910,10.0,3.8,302.56,5.97,'1111122,1111122,1111122' 
COMPS,ioos:station:USF.COMPS:SHP:1,2017-09-01T02:12:00Z,30.0600,-84.2910,10.0,1.72,270.52,2.74,'1111122,1111122,1111122' 
COMPS,ioos:station:USF.COMPS:SHP:1,2017-09-01T02:18:00Z,30.0600,-84.2910,10.0,2.91,329.77,3.92,'1111122,1111122,1111122' 
COMPS,ioos:station:USF.COMPS:SHP:1,2017-09-01T02:24:00Z,30.0600,-84.2910,10.0,2.58,324.13,3.23,'1111122,1111122,1111122' 
COMPS,ioos:station:USF.COMPS:SHP:1,2017-09-01T02:30:00Z,30.0600,-84.2910,10.0,2.84,332.91,4.31,'1111122,1111122,1111122' 
COMPS,ioos:station:USF.COMPS:SHP:1,2017-09-01T02:36:00Z,30.0600,-84.2910,10.0,2.32,336.38,3.43,'1111122,1111122,1111122' 
COMPS,ioos:station:USF.COMPS:SHP:1,2017-09-01T02:42:00Z,30.0600,-84.2910,10.0,2.46,335.0,3.13,'1111122,1111122,1111122' 
COMPS,ioos:station:USF.COMPS:SHP:1,2017-09-01T02:48:00Z,30.0600,-84.2910,10.0,2.45,342.95,3.23,'1111122,1111122,1111122' 
COMPS,ioos:station:USF.COMPS:SHP:1,2017-09-01T02:54:00Z,30.0600,-84.2910,10.0,2.32,331.17,3.13,'1111122,1111122,1111122' 
COMPS,ioos:station:USF.COMPS:SHP:1,2017-09-01T03:00:00Z,30.0600,-84.2910,10.0,2.66,324.62,3.33,'1111122,1111122,1111122' 
COMPS,ioos:station:USF.COMPS:SHP:1,2017-09-01T03:06:00Z,30.0600,-84.2910,10.0,1.73,326.04,2.54,'1111122,1111122,1111122' 
COMPS,ioos:station:USF.COMPS:SHP:1,2017-09-01T03:12:00Z,30.0600,-84.2910,10.0,1.12,0.17,1.66,'1111122,1111122,1111122' 
COMPS,ioos:station:USF.COMPS:SHP:1,2017-09-01T03:18:00Z,30.0600,-84.2910,10.0,0.95,14.68,1.86,'1111122,1111122,1111122' 
COMPS,ioos:station:USF.COMPS:SHP:1,2017-09-01T03:24:00Z,30.0600,-84.2910,10.0,0.7,88.56,1.37,'1111122,1111122,1111122' 
COMPS,ioos:station:USF.COMPS:SHP:1,2017-09-01T03:30:00Z,30.0600,-84.2910,10.0,0.69,57.45,1.27,'1111122,1111122,1111122' 
COMPS,ioos:station:USF.COMPS:SHP:1,2017-09-01T03:36:00Z,30.0600,-84.2910,10.0,1.15,316.85,1.37,'1111122,1111122,1111122' 
COMPS,ioos:station:USF.COMPS:SHP:1,2017-09-01T03:42:00Z,30.0600,-84.2910,10.0,1.27,290.43,1.66,'1111122,1111122,1111122' 
COMPS,ioos:station:USF.COMPS:SHP:1,2017-09-01T03:48:00Z,30.0600,-84.2910,10.0,1.16,273.09,1.56,'1111122,1111122,1111122' 
COMPS,ioos:station:USF.COMPS:SHP:1,2017-09-01T03:54:00Z,30.0600,-84.2910,10.0,1.12,257.94,1.76,'1111122,1111122,1111122' 
COMPS,ioos:station:USF.COMPS:SHP:1,2017-09-01T04:00:00Z,30.0600,-84.2910,10.0,0.59,219.89,0.88,'1111122,1111122,1111122' 
COMPS,ioos:station:USF.COMPS:SHP:1,2017-09-01T04:06:00Z,30.0600,-84.2910,10.0,0.55,285.06,0.97,'1111122,1111122,1111122' 
COMPS,ioos:station:USF.COMPS:SHP:1,2017-09-01T04:12:00Z,30.0600,-84.2910,10.0,0.69,358.97,1.07,'1111122,1111122,1111122' 
COMPS,ioos:station:USF.COMPS:SHP:1,2017-09-01T04:18:00Z,30.0600,-84.2910,10.0,0.92,34.87,1.37,'1111122,1111122,1111122' 
COMPS,ioos:station:USF.COMPS:SHP:1,2017-09-01T04:24:00Z,30.0600,-84.2910,10.0,0.6,17.33,0.78,'1111122,1111122,1111122' 
COMPS,ioos:station:USF.COMPS:SHP:1,2017-09-01T04:30:00Z,30.0600,-84.2910,10.0,0.48,357.13,0.68,'1111122,1111122,1111122' 
COMPS,ioos:station:USF.COMPS:SHP:1,2017-09-01T04:36:00Z,30.0600,-84.2910,10.0,0.38,348.14,0.78,'1111122,1111122,1111122' 
COMPS,ioos:station:USF.COMPS:SHP:1,2017-09-01T04:42:00Z,30.0600,-84.2910,10.0,0.54,10.66,0.68,'1111122,1111122,1111122' 
COMPS,ioos:station:USF.COMPS:SHP:1,2017-09-01T04:48:00Z,30.0600,-84.2910,10.0,0.31,10.79,0.78,'1111122,1111122,1111122' 
COMPS,ioos:station:USF.COMPS:SHP:1,2017-09-01T04:54:00Z,30.0600,-84.2910,10.0,0.23,356.21,0.49,'1111122,1111122,1111122' 
COMPS,ioos:station:USF.COMPS:SHP:1,2017-09-01T05:00:00Z,30.0600,-84.2910,10.0,0.15,332.37,0.39,'1111122,1111122,1111122' 
COMPS,ioos:station:USF.COMPS:SHP:1,2017-09-01T05:06:00Z,30.0600,-84.2910,10.0,0.2,231.91,0.39,'1111122,1111122,1111122' 
COMPS,ioos:station:USF.COMPS:SHP:1,2017-09-01T05:12:00Z,30.0600,-84.2910,10.0,0.48,175.82,0.88,'1111122,1111122,1111122' 
COMPS,ioos:station:USF.COMPS:SHP:1,2017-09-01T05:18:00Z,30.0600,-84.2910,10.0,0.34,122.91,0.68,'1111122,1111122,1111122' 
COMPS,ioos:station:USF.COMPS:SHP:1,2017-09-01T05:24:00Z,30.0600,-84.2910,10.0,0.65,108.77,1.07,'1111122,1111122,1111122' 
COMPS,ioos:station:USF.COMPS:SHP:1,2017-09-01T05:30:00Z,30.0600,-84.2910,10.0,0.98,124.52,1.37,'1111122,1111122,1111122' 
COMPS,ioos:station:USF.COMPS:SHP:1,2017-09-01T05:36:00Z,30.0600,-84.2910,10.0,1.02,118.52,1.37,'1111122,1111122,1111122' 
COMPS,ioos:station:USF.COMPS:SHP:1,2017-09-01T05:42:00Z,30.0600,-84.2910,10.0,1.1,122.4,1.66,'1111122,1111122,1111122' 
COMPS,ioos:station:USF.COMPS:SHP:1,2017-09-01T05:48:00Z,30.0600,-84.2910,10.0,0.69,136.18,1.37,'1111122,1111122,1111122' 
COMPS,ioos:station:USF.COMPS:SHP:1,2017-09-01T05:54:00Z,30.0600,-84.2910,10.0,0.43,168.31,0.78,'1111122,1111122,1111122' 
COMPS,ioos:station:USF.COMPS:SHP:1,2017-09-01T06:00:00Z,30.0600,-84.2910,10.0,0.14,183.43,0.49,'1111122,1111122,1111122' 
COMPS,ioos:station:USF.COMPS:SHP:1,2017-09-01T06:06:00Z,30.0600,-84.2910,10.0,0.23,323.63,0.58,'1111122,1111122,1111122' 
COMPS,ioos:station:USF.COMPS:SHP:1,2017-09-01T06:12:00Z,30.0600,-84.2910,10.0,0.18,17.68,0.49,'1111122,1111122,1111122' 
COMPS,ioos:station:USF.COMPS:SHP:1,2017-09-01T06:18:00Z,30.0600,-84.2910,10.0,0.22,8.42,0.58,'1111122,1111122,1111122' 
COMPS,ioos:station:USF.COMPS:SHP:1,2017-09-01T06:24:00Z,30.0600,-84.2910,10.0,0.31,48.63,1.07,'1111122,1111122,1111122' 
COMPS,ioos:station:USF.COMPS:SHP:1,2017-09-01T06:30:00Z,30.0600,-84.2910,10.0,0.78,56.01,1.37,'1111122,1111122,1111122' 
COMPS,ioos:station:USF.COMPS:SHP:1,2017-09-01T06:36:00Z,30.0600,-84.2910,10.0,0.84,39.12,1.47,'1111122,1111122,1111122' 
COMPS,ioos:station:USF.COMPS:SHP:1,2017-09-01T06:42:00Z,30.0600,-84.2910,10.0,1.2,58.52,1.86,'1111122,1111122,1111122' 
COMPS,ioos:station:USF.COMPS:SHP:1,2017-09-01T06:48:00Z,30.0600,-84.2910,10.0,0.9,32.07,1.56,'1111122,1111122,1111122' 
COMPS,ioos:station:USF.COMPS:SHP:1,2017-09-01T06:54:00Z,30.0600,-84.2910,10.0,1.85,96.99,3.52,'1111122,1111122,1111122' 
COMPS,ioos:station:USF.COMPS:SHP:1,2017-09-01T07:00:00Z,30.0600,-84.2910,10.0,2.7,122.98,3.52,'1111122,1111122,1111122' 
COMPS,ioos:station:USF.COMPS:SHP:1,2017-09-01T07:06:00Z,30.0600,-84.2910,10.0,2.65,122.66,3.62,'1111122,1111122,1111122' 
COMPS,ioos:station:USF.COMPS:SHP:1,2017-09-01T07:12:00Z,30.0600,-84.2910,10.0,2.41,114.81,3.52,'1111122,1111122,1111122' 
COMPS,ioos:station:USF.COMPS:SHP:1,2017-09-01T07:18:00Z,30.0600,-84.2910,10.0,2.12,116.16,3.52,'1111122,1111122,1111122' 
COMPS,ioos:station:USF.COMPS:SHP:1,2017-09-01T07:24:00Z,30.0600,-84.2910,10.0,3.16,136.95,5.39,'1111122,1111122,1111122' 
COMPS,ioos:station:USF.COMPS:SHP:1,2017-09-01T07:30:00Z,30.0600,-84.2910,10.0,3.62,134.63,4.9,'1111122,1111122,1111122' 
COMPS,ioos:station:USF.COMPS:SHP:1,2017-09-01T07:36:00Z,30.0600,-84.2910,10.0,3.45,142.78,4.8,'1111122,1111122,1111122' 
COMPS,ioos:station:USF.COMPS:SHP:1,2017-09-01T07:42:00Z,30.0600,-84.2910,10.0,2.64,173.8,4.41,'1111122,1111122,1111122' 
COMPS,ioos:station:USF.COMPS:SHP:1,2017-09-01T07:48:00Z,30.0600,-84.2910,10.0,2.33,185.95,3.23,'1111122,1111122,1111122' 
COMPS,ioos:station:USF.COMPS:SHP:1,2017-09-01T07:54:00Z,30.0600,-84.2910,10.0,2.93,173.94,3.62,'1111122,1111122,1111122' 
COMPS,ioos:station:USF.COMPS:SHP:1,2017-09-01T08:00:00Z,30.0600,-84.2910,10.0,2.83,176.47,3.72,'1111122,1111122,1111122' 
COMPS,ioos:station:USF.COMPS:SHP:1,2017-09-01T08:06:00Z,30.0600,-84.2910,10.0,3.26,179.35,4.41,'1111122,1111122,1111122' 
COMPS,ioos:station:USF.COMPS:SHP:1,2017-09-01T08:12:00Z,30.0600,-84.2910,10.0,2.71,183.29,3.62,'1111122,1111122,1111122' 
COMPS,ioos:station:USF.COMPS:SHP:1,2017-09-01T08:18:00Z,30.0600,-84.2910,10.0,2.28,192.76,3.33,'1111122,1111122,1111122' 
COMPS,ioos:station:USF.COMPS:SHP:1,2017-09-01T08:24:00Z,30.0600,-84.2910,10.0,2.12,193.5,3.13,'1111122,1111122,1111122' 
COMPS,ioos:station:USF.COMPS:SHP:1,2017-09-01T08:30:00Z,30.0600,-84.2910,10.0,2.24,201.98,3.33,'1111122,1111122,1111122' 
COMPS,ioos:station:USF.COMPS:SHP:1,2017-09-01T08:36:00Z,30.0600,-84.2910,10.0,2.7,220.49,3.03,'1111122,1111122,1111122' 
COMPS,ioos:station:USF.COMPS:SHP:1,2017-09-01T08:42:00Z,30.0600,-84.2910,10.0,2.39,213.2,2.84,'1111122,1111122,1111122' 
COMPS,ioos:station:USF.COMPS:SHP:1,2017-09-01T08:48:00Z,30.0600,-84.2910,10.0,2.48,204.88,2.84,'1111122,1111122,1111122' 
COMPS,ioos:station:USF.COMPS:SHP:1,2017-09-01T08:54:00Z,30.0600,-84.2910,10.0,2.58,201.82,3.03,'1111122,1111122,1111122' 
COMPS,ioos:station:USF.COMPS:SHP:1,2017-09-01T09:00:00Z,30.0600,-84.2910,10.0,2.39,190.85,3.23,'1111122,1111122,1111122' 
COMPS,ioos:station:USF.COMPS:SHP:1,2017-09-01T09:06:00Z,30.0600,-84.2910,10.0,2.27,180.23,3.23,'1111122,1111122,1111122' 
COMPS,ioos:station:USF.COMPS:SHP:1,2017-09-01T09:12:00Z,30.0600,-84.2910,10.0,2.08,181.8,2.94,'1111122,1111122,1111122' 
COMPS,ioos:station:USF.COMPS:SHP:1,2017-09-01T09:18:00Z,30.0600,-84.2910,10.0,2.0,190.42,2.74,'1111122,1111122,1111122' 
COMPS,ioos:station:USF.COMPS:SHP:1,2017-09-01T09:24:00Z,30.0600,-84.2910,10.0,2.09,191.17,3.23,'1111122,1111122,1111122' 
COMPS,ioos:station:USF.COMPS:SHP:1,2017-09-01T09:30:00Z,30.0600,-84.2910,10.0,2.31,190.78,3.23,'1111122,1111122,1111122' 
COMPS,ioos:station:USF.COMPS:SHP:1,2017-09-01T09:36:00Z,30.0600,-84.2910,10.0,3.63,207.59,4.8,'1111122,1111122,1111122' 
COMPS,ioos:station:USF.COMPS:SHP:1,2017-09-01T09:42:00Z,30.0600,-84.2910,10.0,3.6,208.68,4.5,'1111122,1111122,1111122' 
COMPS,ioos:station:USF.COMPS:SHP:1,2017-09-01T09:48:00Z,30.0600,-84.2910,10.0,3.71,204.87,4.5,'1111122,1111122,1111122' 
COMPS,ioos:station:USF.COMPS:SHP:1,2017-09-01T09:54:00Z,30.0600,-84.2910,10.0,3.45,204.97,3.92,'1111122,1111122,1111122' 
COMPS,ioos:station:USF.COMPS:SHP:1,2017-09-01T10:00:00Z,30.0600,-84.2910,10.0,3.37,204.34,3.92,'1111122,1111122,1111122' 
COMPS,ioos:station:USF.COMPS:SHP:1,2017-09-01T10:06:00Z,30.0600,-84.2910,10.0,3.01,226.14,3.62,'1111122,1111122,1111122' 
COMPS,ioos:station:USF.COMPS:SHP:1,2017-09-01T10:12:00Z,30.0600,-84.2910,10.0,2.54,231.09,3.23,'1111122,1111122,1111122' 
COMPS,ioos:station:USF.COMPS:SHP:1,2017-09-01T10:18:00Z,30.0600,-84.2910,10.0,2.61,233.31,3.03,'1111122,1111122,1111122' 
COMPS,ioos:station:USF.COMPS:SHP:1,2017-09-01T10:24:00Z,30.0600,-84.2910,10.0,2.5,233.2,3.13,'1111122,1111122,1111122' 
COMPS,ioos:station:USF.COMPS:SHP:1,2017-09-01T10:30:00Z,30.0600,-84.2910,10.0,2.25,232.42,3.03,'1111122,1111122,1111122' 
COMPS,ioos:station:USF.COMPS:SHP:1,2017-09-01T10:36:00Z,30.0600,-84.2910,10.0,2.73,220.2,3.23,'1111122,1111122,1111122' 
COMPS,ioos:station:USF.COMPS:SHP:1,2017-09-01T10:42:00Z,30.0600,-84.2910,10.0,2.88,220.16,3.23,'1111122,1111122,1111122' 
COMPS,ioos:station:USF.COMPS:SHP:1,2017-09-01T10:48:00Z,30.0600,-84.2910,10.0,3.05,219.83,3.62,'1111122,1111122,1111122' 
COMPS,ioos:station:USF.COMPS:SHP:1,2017-09-01T10:54:00Z,30.0600,-84.2910,10.0,3.13,205.22,3.62,'1111122,1111122,1111122' 
COMPS,ioos:station:USF.COMPS:SHP:1,2017-09-01T11:00:00Z,30.0600,-84.2910,10.0,2.88,194.06,3.92,'1111122,1111122,1111122' 
COMPS,ioos:station:USF.COMPS:SHP:1,2017-09-01T11:06:00Z,30.0600,-84.2910,10.0,2.93,195.51,4.11,'1111122,1111122,1111122' 
COMPS,ioos:station:USF.COMPS:SHP:1,2017-09-01T11:12:00Z,30.0600,-84.2910,10.0,3.01,196.14,4.11,'1111122,1111122,1111122' 
COMPS,ioos:station:USF.COMPS:SHP:1,2017-09-01T11:18:00Z,30.0600,-84.2910,10.0,3.07,196.51,4.11,'1111122,1111122,1111122' 
COMPS,ioos:station:USF.COMPS:SHP:1,2017-09-01T11:24:00Z,30.0600,-84.2910,10.0,3.47,215.09,4.11,'1111122,1111122,1111122' 
COMPS,ioos:station:USF.COMPS:SHP:1,2017-09-01T11:30:00Z,30.0600,-84.2910,10.0,3.28,227.06,3.72,'1111122,1111122,1111122' 
COMPS,ioos:station:USF.COMPS:SHP:1,2017-09-01T11:36:00Z,30.0600,-84.2910,10.0,3.26,241.89,4.01,'1111122,1111122,1111122' 
COMPS,ioos:station:USF.COMPS:SHP:1,2017-09-01T11:42:00Z,30.0600,-84.2910,10.0,2.88,250.43,3.72,'1111122,1111122,1111122' 
COMPS,ioos:station:USF.COMPS:SHP:1,2017-09-01T11:48:00Z,30.0600,-84.2910,10.0,2.51,256.51,3.13,'1111122,1111122,1111122' 
COMPS,ioos:station:USF.COMPS:SHP:1,2017-09-01T11:54:00Z,30.0600,-84.2910,10.0,1.87,285.64,2.64,'1111122,1111122,1111122' 
COMPS,ioos:station:USF.COMPS:SHP:1,2017-09-01T12:00:00Z,30.0600,-84.2910,10.0,1.36,271.76,2.05,'1111122,1111122,1111122' 
COMPS,ioos:station:USF.COMPS:SHP:1,2017-09-01T12:06:00Z,30.0600,-84.2910,10.0,1.38,257.68,1.96,'1111122,1111122,1111122' 
COMPS,ioos:station:USF.COMPS:SHP:1,2017-09-01T12:12:00Z,30.0600,-84.2910,10.0,1.17,262.12,1.66,'1111122,1111122,1111122' 
COMPS,ioos:station:USF.COMPS:SHP:1,2017-09-01T12:18:00Z,30.0600,-84.2910,10.0,1.12,267.66,1.56,'1111122,1111122,1111122' 
COMPS,ioos:station:USF.COMPS:SHP:1,2017-09-01T12:24:00Z,30.0600,-84.2910,10.0,1.33,271.06,1.76,'1111122,1111122,1111122' 
COMPS,ioos:station:USF.COMPS:SHP:1,2017-09-01T12:30:00Z,30.0600,-84.2910,10.0,1.43,272.05,2.05,'1111122,1111122,1111122' 
COMPS,ioos:station:USF.COMPS:SHP:1,2017-09-01T12:36:00Z,30.0600,-84.2910,10.0,1.21,271.93,1.66,'1111122,1111122,1111122' 
COMPS,ioos:station:USF.COMPS:SHP:1,2017-09-01T12:42:00Z,30.0600,-84.2910,10.0,1.85,263.99,2.35,'1111122,1111122,1111122' 
COMPS,ioos:station:USF.COMPS:SHP:1,2017-09-01T12:48:00Z,30.0600,-84.2910,10.0,1.57,272.66,2.25,'1111122,1111122,1111122' 
COMPS,ioos:station:USF.COMPS:SHP:1,2017-09-01T12:54:00Z,30.0600,-84.2910,10.0,1.95,269.06,2.84,'1111122,1111122,1111122' 
COMPS,ioos:station:USF.COMPS:SHP:1,2017-09-01T13:00:00Z,30.0600,-84.2910,10.0,2.26,266.44,2.84,'1111122,1111122,1111122' 
COMPS,ioos:station:USF.COMPS:SHP:1,2017-09-01T13:06:00Z,30.0600,-84.2910,10.0,3.39,252.38,4.11,'1111122,1111122,1111122' 
COMPS,ioos:station:USF.COMPS:SHP:1,2017-09-01T13:12:00Z,30.0600,-84.2910,10.0,3.37,253.34,4.41,'1111122,1111122,1111122' 
COMPS,ioos:station:USF.COMPS:SHP:1,2017-09-01T13:18:00Z,30.0600,-84.2910,10.0,3.77,250.55,4.5,'1111122,1111122,1111122' 
COMPS,ioos:station:USF.COMPS:SHP:1,2017-09-01T13:24:00Z,30.0600,-84.2910,10.0,3.78,251.8,4.6,'1111122,1111122,1111122' 
COMPS,ioos:station:USF.COMPS:SHP:1,2017-09-01T13:30:00Z,30.0600,-84.2910,10.0,3.75,253.53,4.7,'1111122,1111122,1111122' 
COMPS,ioos:station:USF.COMPS:SHP:1,2017-09-01T13:36:00Z,30.0600,-84.2910,10.0,4.41,253.76,5.58,'1111122,1111122,1111122' 
COMPS,ioos:station:USF.COMPS:SHP:1,2017-09-01T13:42:00Z,30.0600,-84.2910,10.0,4.85,256.69,6.07,'1111122,1111122,1111122' 
COMPS,ioos:station:USF.COMPS:SHP:1,2017-09-01T13:48:00Z,30.0600,-84.2910,10.0,5.16,253.47,6.95,'1111122,1111122,1111122' 
COMPS,ioos:station:USF.COMPS:SHP:1,2017-09-01T13:54:00Z,30.0600,-84.2910,10.0,4.27,272.49,5.39,'1111122,1111122,1111122' 
COMPS,ioos:station:USF.COMPS:SHP:1,2017-09-01T14:00:00Z,30.0600,-84.2910,10.0,3.44,281.28,4.41,'1111122,1111122,1111122' 
COMPS,ioos:station:USF.COMPS:SHP:1,2017-09-01T14:06:00Z,30.0600,-84.2910,10.0,3.28,270.73,5.68,'1111122,1111122,1111122' 
COMPS,ioos:station:USF.COMPS:SHP:1,2017-09-01T14:12:00Z,30.0600,-84.2910,10.0,2.37,282.3,3.52,'1111122,1111122,1111122' 
COMPS,ioos:station:USF.COMPS:SHP:1,2017-09-01T14:18:00Z,30.0600,-84.2910,10.0,2.88,279.02,3.72,'1111122,1111122,1111122' 
COMPS,ioos:station:USF.COMPS:SHP:1,2017-09-01T14:24:00Z,30.0600,-84.2910,10.0,2.76,276.79,3.72,'1111122,1111122,1111122' 
COMPS,ioos:station:USF.COMPS:SHP:1,2017-09-01T14:30:00Z,30.0600,-84.2910,10.0,3.09,276.73,3.72,'1111122,1111122,1111122' 
COMPS,ioos:station:USF.COMPS:SHP:1,2017-09-01T14:36:00Z,30.0600,-84.2910,10.0,2.9,272.83,3.82,'1111122,1111122,1111122' 
COMPS,ioos:station:USF.COMPS:SHP:1,2017-09-01T14:42:00Z,30.0600,-84.2910,10.0,2.7,251.3,3.43,'1111122,1111122,1111122' 
COMPS,ioos:station:USF.COMPS:SHP:1,2017-09-01T14:48:00Z,30.0600,-84.2910,10.0,2.63,242.38,3.43,'1111122,1111122,1111122' 
COMPS,ioos:station:USF.COMPS:SHP:1,2017-09-01T14:54:00Z,30.0600,-84.2910,10.0,2.91,234.4,3.92,'1111122,1111122,1111122' 
COMPS,ioos:station:USF.COMPS:SHP:1,2017-09-01T15:00:00Z,30.0600,-84.2910,10.0,2.78,235.76,3.52,'1111122,1111122,1111122' 
COMPS,ioos:station:USF.COMPS:SHP:1,2017-09-01T15:06:00Z,30.0600,-84.2910,10.0,2.64,238.96,3.43,'1111122,1111122,1111122' 
COMPS,ioos:station:USF.COMPS:SHP:1,2017-09-01T15:12:00Z,30.0600,-84.2910,10.0,2.91,237.97,4.21,'1111122,1111122,1111122' 
COMPS,ioos:station:USF.COMPS:SHP:1,2017-09-01T15:18:00Z,30.0600,-84.2910,10.0,3.77,238.52,4.6,'1111122,1111122,1111122' 
COMPS,ioos:station:USF.COMPS:SHP:1,2017-09-01T15:24:00Z,30.0600,-84.2910,10.0,4.02,232.69,6.95,'1111122,1111122,1111122' 
COMPS,ioos:station:USF.COMPS:SHP:1,2017-09-01T15:30:00Z,30.0600,-84.2910,10.0,5.54,226.78,6.66,'1111122,1111122,1111122' 
COMPS,ioos:station:USF.COMPS:SHP:1,2017-09-01T15:36:00Z,30.0600,-84.2910,10.0,5.75,228.78,7.54,'1111122,1111122,1111122' 
COMPS,ioos:station:USF.COMPS:SHP:1,2017-09-01T15:42:00Z,30.0600,-84.2910,10.0,6.56,228.53,7.54,'1111122,1111122,1111122' 
COMPS,ioos:station:USF.COMPS:SHP:1,2017-09-01T15:48:00Z,30.0600,-84.2910,10.0,6.35,225.13,7.25,'1111122,1111122,1111122' 
COMPS,ioos:station:USF.COMPS:SHP:1,2017-09-01T15:54:00Z,30.0600,-84.2910,10.0,6.04,229.9,7.64,'1111122,1111122,1111122' 
COMPS,ioos:station:USF.COMPS:SHP:1,2017-09-01T16:00:00Z,30.0600,-84.2910,10.0,6.04,223.97,7.35,'1111122,1111122,1111122' 
COMPS,ioos:station:USF.COMPS:SHP:1,2017-09-01T16:06:00Z,30.0600,-84.2910,10.0,6.72,222.75,7.64,'1111122,1111122,1111122' 
COMPS,ioos:station:USF.COMPS:SHP:1,2017-09-01T16:12:00Z,30.0600,-84.2910,10.0,6.59,222.59,8.33,'1111122,1111122,1111122' 
COMPS,ioos:station:USF.COMPS:SHP:1,2017-09-01T16:18:00Z,30.0600,-84.2910,10.0,6.93,222.35,7.83,'1111122,1111122,1111122' 
COMPS,ioos:station:USF.COMPS:SHP:1,2017-09-01T16:24:00Z,30.0600,-84.2910,10.0,6.65,220.09,7.93,'1111122,1111122,1111122' 
COMPS,ioos:station:USF.COMPS:SHP:1,2017-09-01T16:30:00Z,30.0600,-84.2910,10.0,6.65,214.97,7.74,'1111122,1111122,1111122' 
COMPS,ioos:station:USF.COMPS:SHP:1,2017-09-01T16:36:00Z,30.0600,-84.2910,10.0,5.73,237.28,8.91,'1111122,1111122,1111122' 
COMPS,ioos:station:USF.COMPS:SHP:1,2017-09-01T16:42:00Z,30.0600,-84.2910,10.0,5.48,275.05,7.54,'1111122,1111122,1111122' 
COMPS,ioos:station:USF.COMPS:SHP:1,2017-09-01T16:48:00Z,30.0600,-84.2910,10.0,4.93,275.87,6.37,'1111122,1111122,1111122' 
COMPS,ioos:station:USF.COMPS:SHP:1,2017-09-01T16:54:00Z,30.0600,-84.2910,10.0,3.95,281.4,5.19,'1111122,1111122,1111122' 
COMPS,ioos:station:USF.COMPS:SHP:1,2017-09-01T17:00:00Z,30.0600,-84.2910,10.0,3.16,279.1,4.8,'1111122,1111122,1111122' 
COMPS,ioos:station:USF.COMPS:SHP:1,2017-09-01T17:06:00Z,30.0600,-84.2910,10.0,2.75,280.81,4.21,'1111122,1111122,1111122' 
COMPS,ioos:station:USF.COMPS:SHP:1,2017-09-01T17:12:00Z,30.0600,-84.2910,10.0,2.48,291.16,3.72,'1111122,1111122,1111122' 
COMPS,ioos:station:USF.COMPS:SHP:1,2017-09-01T17:18:00Z,30.0600,-84.2910,10.0,2.22,271.53,3.33,'1111122,1111122,1111122' 
COMPS,ioos:station:USF.COMPS:SHP:1,2017-09-01T17:24:00Z,30.0600,-84.2910,10.0,1.72,255.09,2.84,'1111122,1111122,1111122' 
COMPS,ioos:station:USF.COMPS:SHP:1,2017-09-01T17:30:00Z,30.0600,-84.2910,10.0,2.44,245.47,3.82,'1111122,1111122,1111122' 
COMPS,ioos:station:USF.COMPS:SHP:1,2017-09-01T17:36:00Z,30.0600,-84.2910,10.0,2.83,247.92,3.62,'1111122,1111122,1111122' 
COMPS,ioos:station:USF.COMPS:SHP:1,2017-09-01T17:42:00Z,30.0600,-84.2910,10.0,2.91,234.96,4.21,'1111122,1111122,1111122' 
COMPS,ioos:station:USF.COMPS:SHP:1,2017-09-01T17:48:00Z,30.0600,-84.2910,10.0,3.5,225.38,5.39,'1111122,1111122,1111122' 
COMPS,ioos:station:USF.COMPS:SHP:1,2017-09-01T17:54:00Z,30.0600,-84.2910,10.0,4.51,222.99,5.29,'1111122,1111122,1111122' 
COMPS,ioos:station:USF.COMPS:SHP:1,2017-09-01T18:00:00Z,30.0600,-84.2910,10.0,4.83,222.13,6.37,'1111122,1111122,1111122' 
COMPS,ioos:station:USF.COMPS:SHP:1,2017-09-01T18:06:00Z,30.0600,-84.2910,10.0,6.38,210.15,7.05,'1111122,1111122,1111122' 
COMPS,ioos:station:USF.COMPS:SHP:1,2017-09-01T18:12:00Z,30.0600,-84.2910,10.0,6.12,209.52,7.44,'1111122,1111122,1111122' 
COMPS,ioos:station:USF.COMPS:SHP:1,2017-09-01T18:18:00Z,30.0600,-84.2910,10.0,6.06,209.88,7.25,'1111122,1111122,1111122' 
COMPS,ioos:station:USF.COMPS:SHP:1,2017-09-01T18:24:00Z,30.0600,-84.2910,10.0,6.66,205.46,7.74,'1111122,1111122,1111122' 
COMPS,ioos:station:USF.COMPS:SHP:1,2017-09-01T18:30:00Z,30.0600,-84.2910,10.0,6.42,217.67,7.54,'1111122,1111122,1111122' 
COMPS,ioos:station:USF.COMPS:SHP:1,2017-09-01T18:36:00Z,30.0600,-84.2910,10.0,6.71,219.09,7.74,'1111122,1111122,1111122' 
COMPS,ioos:station:USF.COMPS:SHP:1,2017-09-01T18:42:00Z,30.0600,-84.2910,10.0,7.12,218.57,9.01,'1111122,1111122,1111122' 
COMPS,ioos:station:USF.COMPS:SHP:1,2017-09-01T18:48:00Z,30.0600,-84.2910,10.0,7.9,213.29,9.3,'1111122,1111122,1111122' 
COMPS,ioos:station:USF.COMPS:SHP:1,2017-09-01T18:54:00Z,30.0600,-84.2910,10.0,8.28,216.55,9.5,'1111122,1111122,1111122' 
COMPS,ioos:station:USF.COMPS:SHP:1,2017-09-01T19:00:00Z,30.0600,-84.2910,10.0,7.78,217.69,9.11,'1111122,1111122,1111122' 
COMPS,ioos:station:USF.COMPS:SHP:1,2017-09-01T19:06:00Z,30.0600,-84.2910,10.0,7.81,218.26,9.01,'1111122,1111122,1111122' 
COMPS,ioos:station:USF.COMPS:SHP:1,2017-09-01T19:12:00Z,30.0600,-84.2910,10.0,7.56,216.17,8.72,'1111122,1111122,1111122' 
COMPS,ioos:station:USF.COMPS:SHP:1,2017-09-01T19:18:00Z,30.0600,-84.2910,10.0,7.75,216.86,8.52,'1111122,1111122,1111122' 
COMPS,ioos:station:USF.COMPS:SHP:1,2017-09-01T19:24:00Z,30.0600,-84.2910,10.0,8.13,214.99,9.7,'1111122,1111122,1111122' 
COMPS,ioos:station:USF.COMPS:SHP:1,2017-09-01T19:30:00Z,30.0600,-84.2910,10.0,7.63,218.2,8.82,'1111122,1111122,1111122' 